www.pogodaiklimat.ru

Погода и климат >> Архив погоды >> Малайзия >> Кучинг


ПОГОДА в Кучинге

  • Прогноз погоды в Кучинге
  • Монитор погоды в Кучинге

АРХИВ ПОГОДЫ в Кучинге

Время (UTC), дата Ветер
(напр.,м/с)
 
Видим.   Явления Облачность Т
(С)
Тd
(С)
f
(%)
Тe
(С)
Тes
(С)
Комфортность P
(гПа)
Po
(гПа)
Тmin
(С)
Tmax
(С)
R
(мм)
R24
(мм)
S
(см)
09 8.09 ЮВ 3 1000 м мгла 9/3 660 м
[Cu med, cong Ac lent Ci fib]
+33.4 +23.9 58 +45 +47 опасность
перегрева
1008.1 1005.5
12 8.09 Ю 1 1000 м мгла {туман} 9/3 600 м
[Sc Ac trans Ci fib]
+29.9 +24.7 74 +43 +43 опасность
перегрева
1009.8 1007.2 +34.0
15 8.09 СЗ 2 1000 м мгла {туман} 9/1 600 м
[Sc Ac trans Ci fib]
+28.6 +25.3 82 +42 +42 опасность
перегрева
1011.4 1008.8
18 8.09 ЮЗ 2 800 м мгла {туман} 9/1 600 м
[Sc Ac trans Ci fib]
+27.7 +25.3 87 +40 +40 очень
душно
1010.8 1008.2
21 8.09 З 3 800 м мгла {туман} 9/3 600 м
[Sc Ac trans Ci fib]
+26.8 +25.4 92 +39 +39 очень
душно
1009.9 1007.3
00 9.09 ЮЗ 1 500 м мгла ?/? +26.9 +25.8 94 +40 +40 очень
душно
1011.7 1009.1 +26.0
03 9.09 ЮВ 2 400 м мгла ?/? +29.7 +25.1 76 +43 +43 опасность
перегрева
1012.5 1009.9
06 9.09 В 2 500 м мгла {туман} ?/? +32.6 +25.8 67 +48 +48 опасность
перегрева
1009.7 1007.1
09 9.09 С 2 500 м мгла {туман} ?/? +31.2 +25.9 73 +46 +46 опасность
перегрева
1008.3 1005.7
12 9.09 С 2 800 м мгла {туман} ?/? +28.4 +25.6 85 +42 +42 опасность
перегрева
1010.2 1007.6 +33.0
15 9.09 Ю 1 1000 м мгла {туман} ?/? +26.9 +25.8 94 +40 +40 очень
душно
1011.7 1009.1
18 9.09 ЮЗ 1 1000 м мгла {туман} ?/? +26.6 +25.6 94 +39 +39 очень
душно
1010.6 1008.0
21 9.09 Ю 1 1000 м мгла {туман} ?/? +25.6 +25.0 96 +36 +36 очень
душно
1010.7 1008.0
00 10.09 Ю 1 800 м мгла {туман} ?/? +26.2 +25.3 95 +38 +38 очень
душно
1012.3 1009.6 +25.6
03 10.09 ЮВ 2 1200 м мгла 9/1 540 м
[Cu hum Ac trans Cs]
+31.5 +26.4 74 +48 +58 опасность
перегрева
1012.7 1010.1
06 10.09 ЮВ 2 1200 м мгла {туман} 9/3 600 м
[Cu hum Ac lent Ci fib]
+32.5 +25.4 66 +47 +54 опасность
перегрева
1009.6 1007.0
09 10.09 С 3 600 м мгла {туман} ?/? +30.9 +26.0 75 +46 +46 опасность
перегрева
1009.0 1006.4
12 10.09 З 2 700 м мгла {туман} ?/? +28.8 +25.2 81 +42 +42 опасность
перегрева
1011.6 1009.0 +33.2
15 10.09 З 2 800 м мгла {туман} ?/? +27.2 +24.6 86 +39 +39 очень
душно
1012.9 1010.2
18 10.09 З 1 600 м мгла {гроза, туман} ?/? +25.6 +25.2 98 +37 +37 очень
душно
1012.0 1009.3 9
21 10.09 штиль 0 600 м мгла {гроза, туман} ?/? +24.6 +24.1 97 +34 +34 очень
душно
1012.4 1009.7
00 11.09 Ю 1 1000 м мгла {гроза, туман} 9/5 600 м
[Cb cap Ac As]
+24.4 +24.0 98 +34 +34 очень
душно
1014.3 1011.6 +24.4 11
03 11.09 Ю 2 2000 м мгла {туман} 9/3 480 м
[Cu hum Ac trans Ci fib]
+30.3 +25.7 76 +45 +53 опасность
перегрева
1014.0 1011.4
06 11.09 В 2 4000 м мгла 9/5 600 м
[Cu med, cong Ac trans Ci fib]
+32.7 +24.6 62 +45 +52 опасность
перегрева
1011.0 1008.4 0.0
09 11.09 СЗ 3 4000 м мгла 9/5 600 м
[Cu med, cong Ac lent Ci fib]
+31.7 +25.0 68 +45 +46 опасность
перегрева
1010.2 1007.6
12 11.09 Ю 2 6000 м мгла 9/4 600 м
[Sc Ac lent Ci fib]
+26.1 +22.5 81 +34 +34 очень
душно
1012.1 1009.4 +33.5
15 11.09 штиль 0 7000 м мгла 9/3 600 м
[Sc Ac lent Ci fib]
+25.0 +22.6 87 +33 +33 очень
душно
1013.6 1010.9
18 11.09 ЮЗ 1 7000 м мгла 9/3 600 м
[Sc Ac lent Ci fib]
+24.6 +22.9 90 +33 +33 очень
душно
1012.5 1009.8
21 11.09 ЮЗ 1 7000 м мгла 9/3 600 м
[Sc Ac lent Ci fib]
+24.4 +23.3 94 +33 +33 очень
душно
1011.8 1009.1
00 12.09 З 1 5000 м мгла {туман} 9/3 100 м
[Sc Ac trans Ci fib]
+25.6 +24.2 92 +35 +37 очень
душно
1013.6 1010.9 +24.1 0.0
03 12.09 З 1 5000 м мгла 9/3 480 м
[Cu hum Ac trans Ci fib]
+30.6 +25.2 73 +44 +53 опасность
перегрева
1014.0 1011.4
06 12.09 З 3 4000 м осадки на расстоянии 9/5 450 м
[Cb cap Ac trans Ci fib]
+33.8 +24.2 57 +46 +51 опасность
перегрева
1010.6 1008.0
09 12.09 ЮВ 2 4000 м в посл. час гроза {ливн. осадки} 9/5 600 м
[Cu med, cong Ac trans Ci fib]
+26.0 +23.1 84 +35 +36 очень
душно
1010.1 1007.4
12 12.09 ЮЗ 3 5000 м мгла {гроза} 9/4 600 м
[Sc Ac trans Ci fib]
+26.3 +23.5 85 +36 +36 очень
душно
1011.8 1009.1 +34.3 0.0
15 12.09 ЮВ 1 5000 м мгла 9/4 600 м
[Sc Ac lent Ci fib]
+24.4 +23.5 95 +33 +33 очень
душно
1012.5 1009.8
18 12.09 штиль 0 5000 м мгла 9/4 600 м
[Sc Ac lent Ci fib]
+23.5 +22.7 95 +31 +31 очень
душно
1011.5 1008.8
21 12.09 Ю 1 4000 м мгла {туман} 9/3 30 м
[Sc Ac trans Ci fib]
+22.7 +22.3 98 +31 +31 очень
душно
1011.1 1008.4
00 13.09 штиль 0 1200 м мгла {туман} 9/1 100 м
[Sc Ac lent Ci fib]
+24.1 +22.9 93 +32 +34 очень
душно
1012.9 1010.2 +22.4 0.0
03 13.09 ЮВ 4 800 м мгла {туман} ?/? +30.0 +23.8 69 +41 +41 опасность
перегрева
1012.9 1010.2
06 13.09 Ю 2 800 м мгла {туман} ?/? +33.1 +24.3 60 +45 +45 опасность
перегрева
1009.7 1007.1
09 13.09 Ю 5 800 м мгла {туман} ?/? +30.8 +23.7 66 +42 +42 опасность
перегрева
1008.9 1006.3
12 13.09 В 1 800 м мгла {туман} ?/? +27.5 +24.5 84 +39 +39 очень
душно
1010.7 1008.0 +33.1
15 13.09 ЮВ 1 700 м мгла {туман} ?/? +26.3 +24.7 91 +37 +37 очень
душно
1011.7 1009.0
18 13.09 ЮЗ 2 700 м мгла {туман} ?/? +25.9 +24.2 90 +36 +36 очень
душно
1010.7 1008.0
21 13.09 Ю 2 700 м мгла {туман} ?/? +23.8 +23.3 97 +32 +32 очень
душно
1010.2 1007.5
00 14.09 ЮВ 2 500 м мгла {туман} ?/? +24.5 +22.8 90 +32 +32 очень
душно
1011.8 1009.1 +23.3
03 14.09 Ю 5 500 м мгла {туман} ?/? +29.5 +22.2 65 +38 +38 очень
душно
1012.4 1009.7
06 14.09 ЮВ 4 600 м мгла {туман} ?/? +32.2 +22.7 57 +42 +42 опасность
перегрева
1010.0 1007.3
09 14.09 Ю 3 700 м мгла {туман} ?/? +32.0 +21.1 53 +40 +40 очень
душно
1008.7 1006.0
12 14.09 Ю 1 1200 м мгла {туман} 9/1 600 м
[Sc Ac trans Ci fib]
+28.3 +22.5 71 +37 +37 очень
душно
1010.3 1007.6 +32.6
15 14.09 З 2 1500 м мгла {туман} 9/3 600 м
[Sc Ac trans Ci fib]
+25.4 +21.7 80 +33 +33 очень
душно
1011.6 1008.9
18 14.09 штиль 0 1500 м мгла {туман} 9/3 600 м
[Sc Ac trans Ci fib]
+23.0 +21.5 91 +31 +31 очень
душно
1010.5 1007.8
21 14.09 штиль 0 1200 м мгла {туман} 9/1 600 м
[Sc Ac trans Ci fib]
+22.6 +21.4 93 +30 +30 очень
душно
1010.0 1007.3
00 15.09 З 1 600 м мгла {туман} ?/? +23.0 +21.2 90 +31 +31 очень
душно
1011.5 1008.8 +22.1
03 15.09 Ю 1 500 м мгла {туман} ?/? +28.8 +22.9 70 +38 +38 очень
душно
1011.6 1008.9

 

Местоположение метеостанции Кучинг (Малайзия): широта 1.48 долгота 110.33 высота над уровнем моря 27 м.

В архиве по умолчанию представлена погода в Кучинге за последнюю неделю. Архивные данные за месяц целиком и за предыдущие месяцы, начиная с января 2011 года, Вы можете получить, выбрав интересующий диапазон дат из раскрывающегося списка и нажав кнопку "Ввод!".


*Определитесь, кто Вы:
робот инопланетянин человек

Внимание! Время в таблицах - всемирное. Для получения местного времени необходимо прибавить поправку, которая равна 8 ч.

Смотрите также архив погоды в соседних городах и на ближайших метеорологических станциях:

Погода в Парохе (Индонезия) (119 км)
Погода в Сибу (Малайзия) (192 км)
Погода в Синтанге (Индонезия) (202 км)
Погода в Понтианаке (Индонезия) (209 км)
Погода в Нангапинохе (Индонезия) (260 км)
Погода на Путусиббау (Индонезия) (299 км)
Погода в Ранаи (Индонезия) (350 км)
Погода в Бинталу (Малайзия) (356 км)
Погода в Кетапанге (Индонезия) (373 км)
Погода в Пангкалан-Буне (Индонезия) (489 км)

Пояснения к столбцам:

Ветер - указаны скорость ветра в м/с - средняя за 10 мин, порывы в срок и между сроками (в фигурных скобках) и направление, откуда дует ветер: С - северный, СВ - северо-восточный, В - восточный, ЮВ - юго-восточный, Ю - южный, ЮЗ - юго-западный, З - западный, СЗ - северо-западный.
Видимость - горизонтальная дальность видимости в метрах или километрах. При видимости от 1 до 10 км при отсутствии осадков обычно наблюдается дымка, при ухудшении видимости до 1 км и менее - туман. В сухую погоду видимость может ухудшаться дымом, пылью или мглою.
Явления - указаны атмосферные явления, наблюдавшиеся в срок или в последний час перед сроком; фигурными скобками обозначены явления, наблюдавшиеся между сроками (за 1-3 часа до срока); квадратными скобками обозначены град или гололедные отложения с указанием их диаметра в мм.
Облачность - указаны через наклонную черту общая и нижняя облачность в баллах и высота нижней границы облаков в метрах; квадратными скобками обозначены формы облаков: Ci - перистые, Cs - перисто-слоистые, Cc - перисто-кучевые, Ac - высококучевые, As - высокослоистые, Sc - слоисто-кучевые, Ns - слоисто-дождевые, Cu - кучевые, Cb - кучево-дождевые. Подробнее классификацию облаков см. в Атласе облаков (PDF).
T - Температура воздуха - температура, измеренная на высоте 2 м над землей.
Td - Температура точки росы - температура, при понижении до которой содержащийся в воздухе водяной пар достигнет насыщения.
f - Относительная влажность воздуха - влажноcть воздуха, измеренная на высоте 2 м над землей.
Te - Эффективная температура - температура, которую ощущает одетый по сезону человек в тени. Характеристика душности погоды. При расчете учитывается влияние влажности воздуха и скорости ветра на теплоощущения человека.
Tes - Эффективная температура на солнце - температура, которую ощущает человек, с поправкой на солнечный нагрев. Характеристика знойности погоды. Зависит от высоты солнца над горизонтом, облачности и скорости ветра. Ночью, в пасмурную погоду, а также при ветре 12 м/с и более поправка равна нулю.
P - Атмосферное давление - приведенное к уровню моря атмосферное давление.
Po - Атмосферное давление - измеренное на уровне метеостанции атмосферное давление.
Tmin - Минимальная температура - минимум температуры воздуха на высоте 2 м над землей.
Tmax - Максимальная температура - максимум температуры воздуха на высоте 2 м над землей.
R - Количество осадков - Количество выпавших осадков за период времени, мм. При наведении курсора мыши на число - период времени, за который выпало указанное количество осадков.
R24 - Количество осадков - Количество выпавших осадков за 24 часа, мм.
S - Снежный покров - Высота снежного покрова, см. При наведении курсора мыши на число - состояние снежного покрова и степень покрытия местности в баллах.